Starlink 3546

operational
NORAD ID: 51718 Int'l Des: 2022-016 Owner: SPXS Country: US Constellation: starlink
LEOCIRCULAR

关于 Starlink 3546

正在加载描述...

实时位置

正在加载3D地球...

即将过境

高度历史

Altitude vs Time

uPlot chart will show altitude changes over time

两行轨道根数

1 51718U 22016E 25350.29910246 .00018480 00000-0 11117-2 0 9995
2 51718 53.2160 343.1661 0004397 51.3609 308.7777 15.10893416211968
Epoch: Dec 16, 2025 • Age: 18 hours

当前状态

高度 542.3 km
速度 7.59 km/s
星下点 -21.96°S, 67.87°E
发射日期 Feb 21, 2022
运行时间 3.8 years
类型 internet

技术详情

分类 Payload
质量 297.00 kg
干质量 275.00 kg
总质量 297.00 kg
长度 0.20 m
直径 2.80 m
跨度 9.00 m
形状 Box + pan
制造商 SPXS
平台类型 Starlink
阶段状态 In Orbit
所有者/国家 SPXS/US

大型星座

Loading constellations...